Location: Sewell
(39.7660°N, 75.1450°W)
Time: 03:19:44
(UTC-04:00)

ISS - Visible Passes

Search period start: 30 May 2017 00:00
Search period end: 09 June 2017 00:00
Orbit: 402 x 408 km, 51.6° (Epoch: 30 May)

Date Brightness Start Highest point End Pass type
(mag) Time Alt. Az. Time Alt. Az. Time Alt. Az.
30 May -0.8 00:12:57 10° NNW 00:14:49 14° NNE 00:15:36 13° NNE visible
30 May -0.6 21:43:15 10° NW 21:44:48 13° NNW 21:46:20 10° NNE visible
30 May -0.6 23:21:09 10° NNW 23:22:26 12° N 23:23:45 10° NNE visible
31 May -0.8 00:56:46 10° NW 00:57:35 15° NNW 00:57:35 15° NNW visible
31 May -0.8 20:50:20 10° WNW 20:52:26 16° NNW 20:54:32 10° NNE visible
31 May -0.5 22:29:11 10° NNW 22:30:02 11° N 22:30:53 10° NNE visible
01 Jun -1.2 00:04:55 10° NNW 00:07:01 20° N 00:07:01 20° N visible
01 Jun -0.6 21:36:43 10° NNW 21:37:35 11° N 21:38:27 10° NNE visible
01 Jun -1.1 23:13:06 10° NNW 23:15:11 16° NNE 23:16:30 13° NE visible
02 Jun -0.6 00:48:54 10° NW 00:49:08 12° NW 00:49:08 12° NW visible
02 Jun -0.8 22:21:16 10° NNW 22:22:47 13° NNE 22:24:18 10° NE visible
02 Jun -1.5 23:56:55 10° NW 23:58:40 25° NNW 23:58:40 25° NNW visible
03 Jun -0.7 21:29:21 10° NNW 21:30:21 11° N 21:31:21 10° NNE visible
03 Jun -1.8 23:05:01 10° NNW 23:07:45 24° NNE 23:08:12 23° NE visible
04 Jun -1.2 22:13:08 10° NNW 22:15:25 17° NNE 22:17:42 10° ENE visible
04 Jun -1.5 23:49:01 10° NW 23:50:26 23° NW 23:50:26 23° NW visible
05 Jun -1.0 21:21:16 10° NNW 21:23:00 13° NNE 21:24:44 10° NE visible
05 Jun -2.9 22:56:58 10° NW 23:00:02 45° NNE 23:00:02 45° NNE visible
06 Jun -2.1 22:05:00 10° NW 22:07:53 27° NNE 22:09:40 17° ENE visible
06 Jun -1.3 23:41:22 10° WNW 23:42:18 17° WNW 23:42:18 17° WNW visible
07 Jun -1.5 21:13:05 10° NNW 21:15:33 19° NNE 21:18:00 10° ENE visible
07 Jun -3.6 22:49:03 10° NW 22:51:58 64° W 22:51:58 64° W visible
08 Jun -3.4 21:56:55 10° NW 22:00:10 56° NE 22:01:40 28° ESE visible
